Change the Weather History Date:

Sunday, April 13, 2014

  Actual Average Record
Temperature  
Mean Temperature 39 °F -  
Max Temperature 48 °F 39 °F 49 °F (1958)
Min Temperature 30 °F 23 °F 0 °F (1972)
Degree Days  
Heating Degree Days 26    
Moisture  
Dew Point 28 °F    
Average Humidity 63    
Maximum Humidity 86    
Minimum Humidity 43    
Precipitation  
Precipitation 0.00 in - - ()
Sea Level Pressure  
Sea Level Pressure 29.96 in    
Wind  
Wind Speed 7 mph (NNE)    
Max Wind Speed 14 mph    
Max Gust Speed 24 mph    
Visibility 10 miles    
Events      
Averages and records for this station are not official NWS values.
T = Trace of Precipitation, MM = Missing Value Source: NWS Daily Summary

Daily Weather History Graph

Daily Weather History Graph

Search for Another Location

Airport or City:

Trip Planner

Search our weather history database for the weather conditions in past years. The results will help you decide how hot, cold, wet, or windy it might be!

Date:

Astronomy

Apr. 13, 2014 Rise Set
Actual Time 6:51 AM AKDT 9:19 PM AKDT
Civil Twilight 6:04 AM AKDT 10:06 PM AKDT
Nautical Twilight 5:03 AM AKDT 11:08 PM AKDT
Astronomical Twilight 3:37 AM AKDT 12:37 AM AKDT
Moon 7:51 PM AKDT (4/13) 6:20 AM AKDT (4/13)
Length of Visible Light 16h 01m
Length of Day
14h 28m
Waxing Gibbous, 98% of the Moon is Illuminated
Apr 13
Waxing Gibbous
Apr 14
Full
Apr 21
Last Quarter
Apr 28
New
May 6
First Quarter

Hourly Weather History & Observations

Time (AKDT) Temp. Windchill Dew Point Humidity Pressure Visibility Wind Dir Wind Speed Gust Speed Precip Events Conditions
12:16 AM 35.6 °F 29.2 °F 26.6 °F 70% 30.00 in 10.0 mi NE 8.1 mph - N/A   Scattered Clouds
12:36 AM 33.8 °F 27.0 °F 26.6 °F 75% 30.01 in 10.0 mi NE 8.1 mph 16.1 mph N/A   Scattered Clouds
12:56 AM 33.8 °F 26.4 °F 26.6 °F 75% 30.00 in 10.0 mi NNE 9.2 mph 16.1 mph N/A   Overcast
1:16 AM 33.8 °F 27.0 °F 26.6 °F 75% 29.99 in 10.0 mi NE 8.1 mph - N/A   Overcast
1:36 AM 35.6 °F 30.7 °F 26.6 °F 70% 30.00 in 10.0 mi NNE 5.8 mph - N/A   Mostly Cloudy
1:56 AM 35.6 °F 30.7 °F 26.6 °F 70% 30.00 in 10.0 mi NE 5.8 mph - N/A   Overcast
2:16 AM 35.6 °F 29.9 °F 24.8 °F 65% 30.00 in 10.0 mi NNE 6.9 mph - N/A   Overcast
2:36 AM 35.6 °F 31.7 °F 26.6 °F 70% 30.00 in 10.0 mi NE 4.6 mph - N/A   Overcast
2:56 AM 33.8 °F 29.6 °F 26.6 °F 75% 30.00 in 10.0 mi NNE 4.6 mph - N/A   Overcast
3:16 AM 33.8 °F 30.8 °F 26.6 °F 75% 29.99 in 10.0 mi North 3.5 mph - N/A   Overcast
3:36 AM 33.8 °F 27.7 °F 26.6 °F 75% 29.99 in 10.0 mi NNE 6.9 mph - N/A   Mostly Cloudy
3:56 AM 33.8 °F 29.6 °F 26.6 °F 75% 29.98 in 10.0 mi North 4.6 mph - N/A   Mostly Cloudy
4:16 AM 33.8 °F 29.6 °F 26.6 °F 75% 29.96 in 10.0 mi North 4.6 mph - N/A   Mostly Cloudy
4:36 AM 35.6 °F 31.7 °F 26.6 °F 70% 29.96 in 10.0 mi North 4.6 mph - N/A   Mostly Cloudy
4:56 AM 35.6 °F 30.7 °F 24.8 °F 65% 29.96 in 10.0 mi North 5.8 mph - N/A   Mostly Cloudy
5:16 AM 37.4 °F 30.8 °F 28.4 °F 70% 29.95 in 10.0 mi ENE 9.2 mph - N/A   Partly Cloudy
5:36 AM 37.4 °F 30.3 °F 26.6 °F 65% 29.95 in 10.0 mi ENE 10.4 mph - N/A   Clear
5:56 AM 37.4 °F 30.3 °F 28.4 °F 70% 29.94 in 10.0 mi ENE 10.4 mph - N/A   Clear
6:16 AM 37.4 °F 28.9 °F 26.6 °F 65% 29.93 in 10.0 mi ENE 13.8 mph 20.7 mph N/A   Scattered Clouds
6:36 AM 37.4 °F 29.3 °F 26.6 °F 65% 29.93 in 10.0 mi East 12.7 mph 19.6 mph N/A   Partly Cloudy
6:56 AM 37.4 °F 28.9 °F 26.6 °F 65% 29.92 in 10.0 mi East 13.8 mph - N/A   Clear
7:36 AM 37.4 °F 28.9 °F 26.6 °F 65% 29.90 in 10.0 mi ENE 13.8 mph - N/A   Clear
7:56 AM 39.2 °F 32.0 °F 26.6 °F 61% 29.91 in 10.0 mi ENE 11.5 mph - N/A   Clear
8:16 AM 39.2 °F 33.0 °F 26.6 °F 61% 29.91 in 10.0 mi ENE 9.2 mph - N/A   Clear
8:36 AM 39.2 °F 34.2 °F 26.6 °F 61% 29.92 in 10.0 mi NE 6.9 mph - N/A   Clear
8:56 AM 39.2 °F 33.0 °F 28.4 °F 65% 29.91 in 10.0 mi NE 9.2 mph - N/A   Scattered Clouds
9:16 AM 39.2 °F 35.9 °F 28.4 °F 65% 29.91 in 10.0 mi North 4.6 mph - N/A   Mostly Cloudy
9:36 AM 39.2 °F 35.9 °F 26.6 °F 61% 29.92 in 10.0 mi NW 4.6 mph - N/A   Overcast
9:56 AM 39.2 °F 33.6 °F 26.6 °F 61% 29.91 in 10.0 mi NE 8.1 mph - N/A   Overcast
10:16 AM 41.0 °F 35.8 °F 28.4 °F 61% 29.91 in 10.0 mi ENE 8.1 mph - N/A   Scattered Clouds
10:36 AM 42.8 °F 41.1 °F 28.4 °F 57% 29.92 in 10.0 mi WNW 3.5 mph - N/A   Scattered Clouds
10:56 AM 44.6 °F 40.7 °F 30.2 °F 57% 29.91 in 10.0 mi ENE 6.9 mph - N/A   Scattered Clouds
11:16 AM 46.4 °F 40.7 °F 28.4 °F 50% 29.91 in 10.0 mi East 12.7 mph - N/A   Scattered Clouds
11:36 AM 46.4 °F 42.9 °F 28.4 °F 50% 29.92 in 10.0 mi ESE 6.9 mph - N/A   Overcast
11:56 AM 46.4 °F - 28.4 °F 50% 29.92 in 10.0 mi Calm Calm - N/A   Overcast
12:16 PM 46.4 °F 45.2 °F 28.4 °F 50% 29.93 in 10.0 mi NW 3.5 mph - N/A   Overcast
12:36 PM 46.4 °F - 28.4 °F 50% 29.93 in 10.0 mi Calm Calm - N/A   Overcast
12:56 PM 46.4 °F 45.2 °F 28.4 °F 50% 29.93 in 10.0 mi East 3.5 mph - N/A   Overcast
1:16 PM 46.4 °F 41.9 °F 28.4 °F 50% 29.94 in 10.0 mi East 9.2 mph 24.2 mph N/A   Overcast
1:36 PM 48.2 °F - 26.6 °F 43% 29.94 in 10.0 mi South 6.9 mph 16.1 mph N/A   Overcast
1:56 PM 48.2 °F - 26.6 °F 43% 29.94 in 10.0 mi SSW 11.5 mph - N/A   Overcast
2:16 PM 48.2 °F - 30.2 °F 50% 29.94 in 10.0 mi East 13.8 mph - N/A   Overcast
2:36 PM 46.4 °F 40.7 °F 30.2 °F 53% 29.95 in 10.0 mi East 12.7 mph - N/A   Overcast
2:56 PM 48.2 °F - 26.6 °F 43% 29.96 in 10.0 mi SSW 4.6 mph - N/A   Overcast
3:16 PM 44.6 °F 40.2 °F 28.4 °F 53% 29.97 in 10.0 mi WNW 8.1 mph - N/A   Overcast
3:36 PM 44.6 °F 40.2 °F 30.2 °F 57% 29.98 in 10.0 mi WNW 8.1 mph - N/A   Overcast
3:56 PM 44.6 °F 39.7 °F 30.2 °F 57% 29.98 in 10.0 mi WSW 9.2 mph - N/A   Overcast
4:16 PM 42.8 °F 38.0 °F 30.2 °F 61% 29.98 in 10.0 mi West 8.1 mph - N/A   Overcast
4:36 PM 44.6 °F 43.1 °F 30.2 °F 57% 29.98 in 10.0 mi NW 3.5 mph - N/A   Overcast
4:56 PM 44.6 °F 41.4 °F 30.2 °F 57% 29.97 in 10.0 mi WNW 5.8 mph - N/A   Overcast
5:16 PM 44.6 °F 42.2 °F 30.2 °F 57% 29.97 in 10.0 mi NNW 4.6 mph - N/A   Overcast
5:36 PM 44.6 °F 43.1 °F 30.2 °F 57% 29.97 in 10.0 mi North 3.5 mph - N/A   Overcast
5:56 PM 44.6 °F 42.2 °F 32.0 °F 61% 29.97 in 10.0 mi NNW 4.6 mph - N/A   Overcast
6:16 PM 44.6 °F 40.7 °F 32.0 °F 61% 29.97 in 10.0 mi NW 6.9 mph - N/A   Overcast
6:36 PM 44.6 °F 40.7 °F 32.0 °F 61% 29.97 in 10.0 mi WNW 6.9 mph - N/A   Overcast
6:56 PM 46.4 °F 45.2 °F 30.2 °F 53% 29.97 in 10.0 mi NW 3.5 mph - N/A   Overcast
7:16 PM 46.4 °F - 30.2 °F 53% 29.97 in 10.0 mi Calm Calm - N/A   Overcast
7:36 PM 44.6 °F - 28.4 °F 53% 29.97 in 10.0 mi Calm Calm - N/A   Overcast
7:56 PM 44.6 °F 43.1 °F 30.2 °F 57% 29.98 in 10.0 mi NNE 3.5 mph - N/A   Overcast
8:16 PM 44.6 °F 42.2 °F 30.2 °F 57% 29.98 in 10.0 mi WNW 4.6 mph - N/A   Overcast
8:36 PM 42.8 °F 39.3 °F 30.2 °F 61% 29.98 in 10.0 mi WNW 5.8 mph - N/A   Scattered Clouds
8:56 PM 39.2 °F 34.2 °F 30.2 °F 70% 29.99 in 10.0 mi West 6.9 mph - N/A   Partly Cloudy
9:16 PM 39.2 °F 35.9 °F 30.2 °F 70% 29.99 in 10.0 mi West 4.6 mph - N/A   Mostly Cloudy
9:36 PM 37.4 °F 33.8 °F 30.2 °F 75% 30.00 in 10.0 mi WSW 4.6 mph - N/A   Overcast
9:56 PM 37.4 °F 33.8 °F 30.2 °F 75% 30.00 in 10.0 mi WSW 4.6 mph - N/A   Scattered Clouds
10:16 PM 35.6 °F - 28.4 °F 75% 30.00 in 10.0 mi Calm Calm - N/A   Mostly Cloudy
10:36 PM 35.6 °F - 28.4 °F 75% 30.00 in 10.0 mi Calm Calm - N/A   Mostly Cloudy
10:56 PM 33.8 °F - 26.6 °F 75% 30.00 in 10.0 mi Calm Calm - N/A   Mostly Cloudy
11:16 PM 32.0 °F - 26.6 °F 80% 30.00 in 10.0 mi Calm Calm - N/A   Mostly Cloudy
11:36 PM 30.2 °F - 26.6 °F 86% 30.00 in 10.0 mi Calm Calm - N/A   Partly Cloudy
11:56 PM 30.2 °F - 26.6 °F 86% 30.00 in 10.0 mi Calm Calm - N/A   Partly Cloudy